Total_Precipitation_Accumulation
0.09 0.07 0.04 0.03 0.02 0.01 0.01 0.00 0.00 0.01 0.01 0.01 0.01 0.00 0.00 0.00 0.00 0.00 0.00 0.00 0.00 0.00 0.01 0.01 0.02 0.03 0.04 0.05 0.06 0.08 0.09 0.10 0.11 0.11 0.13 0.13 0.15 0.17
0.09 0.08 0.07 0.05 0.04 0.03 0.02 0.02 0.02 0.03 0.03 0.02 0.02 0.01 0.01 0.01 0.01 0.00 0.00 0.00 0.00 0.00 0.01 0.02 0.02 0.02 0.03 0.04 0.06 0.07 0.09 0.11 0.13 0.16 0.20 0.23 0.26 0.28
0.08 0.08 0.08 0.07 0.06 0.06 0.06 0.06 0.06 0.06 0.06 0.04 0.03 0.03 0.03 0.02 0.01 0.00 0.00 0.01 0.01 0.01 0.01 0.01 0.01 0.02 0.03 0.05 0.06 0.08 0.10 0.12 0.15 0.18 0.20 0.23 0.25 0.27
0.08 0.09 0.10 0.09 0.09 0.09 0.10 0.10 0.10 0.09 0.08 0.06 0.04 0.03 0.03 0.02 0.01 0.01 0.00 0.01 0.01 0.00 0.00 0.01 0.01 0.02 0.03 0.04 0.06 0.08 0.10 0.11 0.11 0.12 0.13 0.15 0.16 0.18
0.09 0.10 0.11 0.12 0.13 0.14 0.15 0.16 0.15 0.12 0.09 0.05 0.03 0.02 0.02 0.02 0.01 0.01 0.00 0.00 0.00 0.00 0.00 0.00 0.00 0.01 0.02 0.04 0.05 0.05 0.05 0.05 0.06 0.06 0.07 0.09 0.10 0.12
0.11 0.14 0.16 0.19 0.22 0.23 0.22 0.19 0.14 0.10 0.06 0.05 0.04 0.04 0.03 0.01 0.00 0.00 0.00 0.00 0.00 0.00 0.00 0.00 0.00 0.00 0.01 0.01 0.01 0.01 0.02 0.02 0.03 0.04 0.06 0.08 0.09 0.11
0.20 0.23 0.25 0.27 0.26 0.21 0.16 0.12 0.08 0.06 0.08 0.11 0.09 0.04 0.01 0.00 0.00 0.00 0.01 0.01 0.00 0.00 0.00 0.00 0.00 0.00 0.00 0.00 0.00 0.00 0.01 0.02 0.04 0.06 0.09 0.11 0.12 0.14
0.24 0.25 0.24 0.21 0.16 0.12 0.08 0.06 0.06 0.11 0.12 0.09 0.05 0.02 0.00 0.00 0.00 0.01 0.03 0.04 0.03 0.00 0.00 0.00 0.00 0.00 0.00 0.00 0.00 0.00 0.01 0.02 0.04 0.06 0.08 0.10 0.12 0.13
0.23 0.19 0.14 0.10 0.06 0.04 0.03 0.04 0.06 0.07 0.05 0.04 0.02 0.00 0.01 0.01 0.04 0.07 0.06 0.07 0.05 0.00 0.01 0.00 0.00 0.00 0.00 0.00 0.00 0.00 0.01 0.02 0.03 0.05 0.06 0.08 0.10 0.11
0.13 0.09 0.06 0.04 0.02 0.02 0.03 0.05 0.03 0.01 0.00 0.00 0.01 0.01 0.02 0.03 0.05 0.09 0.08 0.05 0.01 0.00 0.00 0.00 0.00 0.00 0.00 0.00 0.00 0.00 0.00 0.01 0.02 0.04 0.05 0.07 0.08 0.09
0.04 0.02 0.01 0.01 0.01 0.04 0.05 0.03 0.01 0.00 0.00 0.00 0.02 0.02 0.02 0.02 0.02 0.02 0.03 0.06 0.05 0.00 0.00 0.00 0.00 0.00 0.00 0.00 0.00 0.00 0.00 0.00 0.01 0.02 0.03 0.04 0.05 0.07
0.00 0.00 0.00 0.01 0.03 0.06 0.05 0.03 0.01 0.00 0.01 0.01 0.00 0.00 0.00 0.00 0.00 0.00 0.03 0.14 0.15 0.07 0.00 0.02 0.03 0.05 0.09 0.01 0.00 0.00 0.00 0.00 0.00 0.00 0.01 0.02 0.04 0.07
0.00 0.00 0.00 0.02 0.04 0.05 0.04 0.02 0.01 0.02 0.02 0.00 0.00 0.00 0.00 0.00 0.00 0.00 0.01 0.13 0.24 0.14 0.01 0.12 0.20 0.10 0.16 0.07 0.00 0.00 0.00 0.00 0.00 0.00 0.00 0.01 0.03 0.08
0.01 0.01 0.01 0.03 0.04 0.02 0.01 0.00 0.01 0.01 0.00 0.00 0.00 0.00 0.00 0.00 0.00 0.00 0.00 0.02 0.08 0.10 0.04 0.15 0.36 0.22 0.25 0.16 0.03 0.00 0.00 0.00 0.00 0.01 0.01 0.02 0.03 0.05
0.01 0.02 0.02 0.02 0.01 0.00 0.00 0.00 0.00 0.00 0.00 0.01 0.01 0.00 0.00 0.00 0.00 0.00 0.00 0.00 0.01 0.01 0.01 0.03 0.17 0.23 0.31 0.28 0.13 0.03 0.01 0.01 0.00 0.03 0.06 0.07 0.07 0.08
0.01 0.01 0.01 0.00 0.00 0.00 0.00 0.00 0.00 0.00 0.00 0.01 0.01 0.00 0.00 0.00 0.00 0.00 0.02 0.02 0.03 0.00 0.00 0.00 0.03 0.16 0.25 0.16 0.14 0.07 0.02 0.04 0.04 0.08 0.10 0.09 0.09 0.12
0.02 0.00 0.00 0.00 0.00 0.00 0.00 0.00 0.00 0.00 0.00 0.01 0.02 0.02 0.01 0.01 0.00 0.00 0.02 0.05 0.06 0.03 0.01 0.00 0.00 0.02 0.07 0.10 0.10 0.03 0.01 0.01 0.04 0.10 0.17 0.16 0.11 0.13
0.01 0.00 0.00 0.00 0.00 0.00 0.00 0.00 0.00 0.00 0.01 0.02 0.03 0.04 0.05 0.04 0.03 0.01 0.02 0.05 0.06 0.03 0.02 0.01 0.03 0.06 0.03 0.01 0.01 0.01 0.03 0.02 0.03 0.07 0.16 0.27 0.17 0.08
0.00 0.00 0.00 0.00 0.00 0.00 0.00 0.01 0.01 0.01 0.02 0.04 0.05 0.06 0.08 0.07 0.05 0.04 0.04 0.05 0.05 0.03 0.02 0.02 0.09 0.26 0.26 0.09 0.01 0.00 0.08 0.16 0.13 0.09 0.12 0.26 0.31 0.19
0.00 0.00 0.00 0.00 0.00 0.01 0.01 0.02 0.02 0.02 0.02 0.03 0.05 0.06 0.10 0.11 0.08 0.07 0.07 0.08 0.10 0.07 0.03 0.01 0.06 0.27 0.50 0.37 0.17 0.02 0.02 0.19 0.39 0.36 0.18 0.13 0.15 0.12
0.00 0.00 0.00 0.00 0.01 0.01 0.02 0.03 0.04 0.04 0.04 0.06 0.06 0.07 0.11 0.15 0.12 0.08 0.08 0.06 0.08 0.09 0.07 0.04 0.02 0.07 0.22 0.31 0.20 0.03 0.00 0.03 0.24 0.54 0.55 0.39 0.18 0.06
0.00 0.00 0.00 0.00 0.01 0.02 0.03 0.04 0.04 0.03 0.05 0.06 0.07 0.08 0.11 0.16 0.16 0.12 0.10 0.11 0.09 0.09 0.10 0.05 0.01 0.04 0.14 0.29 0.22 0.07 0.02 0.00 0.01 0.06 0.25 0.54 0.72 0.56
0.00 0.00 0.00 0.01 0.02 0.03 0.04 0.04 0.04 0.04 0.06 0.08 0.08 0.10 0.13 0.14 0.12 0.11 0.10 0.12 0.15 0.16 0.13 0.08 0.03 0.03 0.05 0.11 0.15 0.10 0.05 0.02 0.02 0.02 0.03 0.08 0.21 0.35